Date String (YYYY-MM-DD hh:mm:ss) UTC,Instrument flags,Ambient pressure (hPa),Sample flow (lpm),Bypass flow (lpm),Sample temperature (°C),Ambient temperature (°C),ASC tube jacket temperature (°C),LED temperature (°C),Box temperature (°C),Sample RH (%),Span deviation,Mass concentration (μg/m³),Mass concentration (μg/m³),Mass concentration (μg/m³)
DateTimeUTC,F1_M11,P_M11,Q1_M11,Q2_M11,T1_M11,T2_M11,T3_M11,T4_M11,T5_M11,U1_M11,ZSPAN_M11,X0_M11,X2_M11,X1_M11
2022-04-09 17:00:00,,0817.3,5.00,0.00,29.0,28.1,00.0,37.8,30.8,06.6,0000.0,0010.09,0003.49,0002.02
2022-04-09 17:01:00,,0817.3,4.99,0.00,29.0,28.1,00.0,37.8,30.8,06.6,0000.0,0010.42,0003.52,0002.00
2022-04-09 17:02:00,,0817.3,5.01,0.00,29.0,28.1,00.0,37.8,30.8,06.5,0000.0,0010.70,0003.55,0001.99
2022-04-09 17:03:00,,0817.4,4.98,0.00,29.0,28.1,00.0,37.8,30.8,06.4,0000.0,0010.88,0003.55,0001.97
2022-04-09 17:04:00,,0817.4,5.01,0.00,29.0,28.1,00.0,37.9,30.8,06.5,0000.0,0010.92,0003.55,0001.95
2022-04-09 17:05:00,,0817.3,4.99,0.00,29.1,28.1,00.0,37.9,30.8,06.5,0000.0,0010.60,0003.60,0001.93
2022-04-09 17:06:00,,0817.4,5.01,0.00,29.1,28.1,00.0,37.9,30.8,06.4,0000.0,0010.62,0003.60,0001.93
2022-04-09 17:07:00,,0817.4,5.00,0.00,29.1,28.1,00.0,37.9,30.8,06.4,0000.0,0010.65,0003.62,0001.94
2022-04-09 17:08:00,,0817.4,4.99,0.00,29.1,28.1,00.0,37.9,30.8,06.5,0000.0,0010.49,0003.59,0001.95
2022-04-09 17:09:00,,0817.3,5.01,0.00,29.1,28.1,00.0,37.9,30.9,06.8,0000.0,0010.49,0003.60,0001.96
2022-04-09 17:10:00,,0817.4,4.98,0.00,29.1,28.1,00.0,38.0,30.9,06.8,0000.0,0010.03,0003.57,0001.96
2022-04-09 17:11:00,,0817.2,5.01,0.00,29.1,28.1,00.0,38.0,30.9,06.6,0000.0,0008.78,0003.53,0001.96
2022-04-09 17:12:00,,0817.1,4.98,0.00,29.1,28.1,00.0,38.0,30.9,06.4,0000.0,0008.30,0003.45,0001.98
2022-04-09 17:13:00,,0817.0,5.01,0.00,29.1,28.1,00.0,38.0,30.9,06.5,0000.0,0007.91,0003.40,0001.96
2022-04-09 17:14:00,,0817.3,4.99,0.00,29.1,28.1,00.0,38.0,30.9,06.3,0000.0,0008.72,0003.43,0001.98
2022-04-09 17:15:00,,0817.3,4.99,0.00,29.1,28.2,00.0,38.0,30.9,06.3,0000.0,0009.00,0003.47,0001.99
2022-04-09 17:16:00,,0817.2,5.00,0.00,29.1,28.2,00.0,38.0,30.9,06.6,0000.0,0008.90,0003.46,0002.00
2022-04-09 17:17:00,,0817.1,5.00,0.00,29.1,28.2,00.0,38.0,30.9,06.4,0000.0,0008.73,0003.50,0002.00
2022-04-09 17:18:00,,0817.2,4.99,0.00,29.1,28.2,00.0,38.0,30.9,06.4,0000.0,0009.12,0003.50,0001.98
2022-04-09 17:19:00,,0817.0,5.01,0.00,29.1,28.2,00.0,38.0,30.9,06.3,0000.0,0009.72,0003.50,0001.97
2022-04-09 17:20:00,,0817.3,5.01,0.00,29.1,28.2,00.0,38.1,30.9,06.3,0000.0,0009.68,0003.49,0001.98
2022-04-09 17:21:00,,0817.1,4.98,0.00,29.1,28.2,00.0,38.1,30.9,06.4,0000.0,0009.60,0003.48,0001.98
2022-04-09 17:22:00,,0817.1,5.02,0.00,29.2,28.2,00.0,38.1,30.9,06.4,0000.0,0009.66,0003.51,0001.98
2022-04-09 17:23:00,,0817.2,4.99,0.00,29.2,28.2,00.0,38.1,31.0,06.3,0000.0,0009.65,0003.54,0001.95
2022-04-09 17:24:00,,0817.1,5.00,0.00,29.2,28.3,00.0,38.1,31.0,06.4,0000.0,0009.85,0003.61,0001.94
2022-04-09 17:25:00,,0817.1,5.02,0.00,29.2,28.3,00.0,38.1,31.0,06.4,0000.0,0009.59,0003.59,0001.94
2022-04-09 17:26:00,,0817.3,4.99,0.00,29.2,28.3,00.0,38.1,31.0,06.2,0000.0,0009.24,0003.53,0001.94
2022-04-09 17:27:00,,0817.3,4.99,0.00,29.2,28.3,00.0,38.1,31.0,06.2,0000.0,0009.26,0003.49,0001.94
2022-04-09 17:28:00,,0817.2,5.01,0.00,29.2,28.3,00.0,38.1,31.0,06.4,0000.0,0009.18,0003.42,0001.93
2022-04-09 17:29:00,,0817.1,5.00,0.00,29.2,28.3,00.0,38.1,31.0,06.4,0000.0,0008.80,0003.38,0001.94
2022-04-09 17:30:00,,0817.1,4.98,0.00,29.3,28.3,00.0,38.2,31.1,06.3,0000.0,0008.45,0003.35,0001.94
2022-04-09 17:31:00,,0817.0,5.01,0.00,29.3,28.3,00.0,38.2,31.1,06.4,0000.0,0008.63,0003.34,0001.93
2022-04-09 17:32:00,,0817.1,5.00,0.00,29.3,28.3,00.0,38.2,31.1,06.3,0000.0,0008.76,0003.36,0001.92
2022-04-09 17:33:00,,0817.1,5.01,0.00,29.3,28.3,00.0,38.2,31.1,06.3,0000.0,0008.95,0003.34,0001.91
2022-04-09 17:34:00,,0816.9,5.00,0.00,29.3,28.3,00.0,38.2,31.1,06.4,0000.0,0008.89,0003.31,0001.92
2022-04-09 17:35:00,,0817.0,5.00,0.00,29.3,28.3,00.0,38.2,31.1,06.2,0000.0,0008.77,0003.29,0001.91
2022-04-09 17:36:00,,0816.9,5.02,0.00,29.3,28.3,00.0,38.2,31.1,06.3,0000.0,0008.19,0003.27,0001.92
2022-04-09 17:37:00,,0817.1,4.98,0.00,29.3,28.3,00.0,38.2,31.1,06.2,0000.0,0008.03,0003.27,0001.91
2022-04-09 17:38:00,,0817.1,5.00,0.00,29.4,28.4,00.0,38.2,31.1,06.2,0000.0,0007.89,0003.31,0001.90
2022-04-09 17:39:00,,0817.0,5.01,0.00,29.4,28.4,00.0,38.3,31.1,06.4,0000.0,0007.83,0003.33,0001.89
2022-04-09 17:40:00,,0817.0,5.01,0.00,29.4,28.3,00.0,38.3,31.1,06.5,0000.0,0007.93,0003.36,0001.88
2022-04-09 17:41:00,,0817.0,5.00,0.00,29.4,28.4,00.0,38.3,31.2,06.7,0000.0,0007.69,0003.37,0001.89
2022-04-09 17:42:00,,0817.1,4.99,0.00,29.4,28.4,00.0,38.3,31.2,06.6,0000.0,0007.79,0003.40,0001.90
2022-04-09 17:43:00,,0816.9,5.02,0.00,29.4,28.4,00.0,38.3,31.2,06.5,0000.0,0007.93,0003.43,0001.91
2022-04-09 17:44:00,,0817.2,4.98,0.00,29.4,28.4,00.0,38.3,31.2,06.3,0000.0,0008.01,0003.42,0001.92
2022-04-09 17:45:00,,0816.9,5.01,0.00,29.5,28.4,00.0,38.3,31.2,06.2,0000.0,0008.13,0003.46,0001.94
2022-04-09 17:46:00,,0817.1,4.99,0.00,29.5,28.5,00.0,38.3,31.2,06.5,0000.0,0008.65,0003.52,0001.95
2022-04-09 17:47:00,,0816.8,5.02,0.00,29.5,28.5,00.0,38.4,31.2,06.3,0000.0,0008.82,0003.54,0001.93
2022-04-09 17:48:00,,0817.0,4.97,0.00,29.5,28.5,00.0,38.4,31.2,06.3,0000.0,0008.88,0003.54,0001.94
2022-04-09 17:49:00,,0816.7,5.02,0.00,29.5,28.5,00.0,38.4,31.3,06.4,0000.0,0009.68,0003.54,0001.95
2022-04-09 17:50:00,,0816.8,5.00,0.00,29.5,28.5,00.0,38.4,31.3,06.3,0000.0,0009.96,0003.57,0001.97
2022-04-09 17:51:00,,0816.8,4.99,0.00,29.5,28.5,00.0,38.4,31.3,06.6,0000.0,0010.42,0003.60,0001.97
2022-04-09 17:52:00,,0816.8,5.01,0.00,29.5,28.6,00.0,38.4,31.3,06.2,0000.0,0010.34,0003.60,0001.98
2022-04-09 17:53:00,,0816.9,4.99,0.00,29.6,28.6,00.0,38.4,31.3,06.2,0000.0,0010.06,0003.58,0001.98
2022-04-09 17:54:00,,0816.8,5.02,0.00,29.6,28.6,00.0,38.4,31.3,06.2,0000.0,0009.87,0003.57,0001.97
2022-04-09 17:55:00,,0816.7,4.99,0.00,29.6,28.6,00.0,38.4,31.3,06.2,0000.0,0009.65,0003.60,0001.98
2022-04-09 17:56:00,,0816.7,4.99,0.00,29.6,28.6,00.0,38.5,31.3,06.4,0000.0,0009.58,0003.57,0001.97
2022-04-09 17:57:00,,0816.7,5.01,0.00,29.6,28.6,00.0,38.5,31.3,06.2,0000.0,0009.49,0003.55,0001.98
2022-04-09 17:58:00,,0816.6,5.00,0.00,29.6,28.6,00.0,38.5,31.4,06.3,0000.0,0009.42,0003.55,0002.00
2022-04-09 17:59:00,,0816.7,4.99,0.00,29.7,28.6,00.0,38.5,31.4,06.3,0000.0,0009.46,0003.58,0001.99
